QPF
0.04 0.05 0.07 0.06 0.04 0.03 0.03 0.03 0.02 0.02 0.02 0.02 0.02 0.02 0.02 0.02 0.03 0.04 0.05 0.06 0.05 0.06 0.08 0.10 0.08 0.07 0.05 0.03 0.04 0.04 0.06 0.09 0.08 0.08 0.09 0.08 0.08 0.10 0.12 0.08 0.06 0.05 0.06
0.01 0.03 0.05 0.05 0.04 0.03 0.03 0.03 0.03 0.03 0.02 0.02 0.02 0.02 0.02 0.03 0.03 0.04 0.04 0.05 0.06 0.08 0.08 0.08 0.06 0.05 0.04 0.05 0.05 0.05 0.05 0.09 0.10 0.10 0.10 0.08 0.08 0.10 0.11 0.09 0.05 0.05 0.08
0.01 0.02 0.03 0.03 0.03 0.03 0.04 0.03 0.03 0.03 0.02 0.02 0.02 0.03 0.04 0.04 0.05 0.06 0.06 0.06 0.07 0.06 0.07 0.05 0.05 0.04 0.06 0.06 0.06 0.06 0.07 0.07 0.08 0.11 0.13 0.13 0.11 0.09 0.08 0.07 0.05 0.05 0.08
0.01 0.01 0.01 0.02 0.02 0.03 0.03 0.03 0.03 0.03 0.02 0.02 0.03 0.04 0.05 0.06 0.06 0.06 0.06 0.07 0.06 0.05 0.04 0.04 0.04 0.05 0.06 0.06 0.06 0.05 0.07 0.07 0.06 0.10 0.11 0.12 0.10 0.09 0.08 0.05 0.04 0.05 0.06
0.00 0.01 0.01 0.02 0.02 0.02 0.02 0.02 0.02 0.02 0.02 0.02 0.03 0.04 0.04 0.06 0.06 0.06 0.05 0.04 0.03 0.03 0.04 0.05 0.06 0.07 0.06 0.06 0.06 0.05 0.06 0.09 0.09 0.08 0.08 0.10 0.10 0.08 0.06 0.04 0.04 0.04 0.05
0.00 0.00 0.01 0.03 0.02 0.02 0.01 0.01 0.01 0.02 0.02 0.02 0.04 0.04 0.05 0.05 0.05 0.05 0.04 0.04 0.04 0.05 0.05 0.07 0.07 0.07 0.07 0.06 0.06 0.06 0.05 0.06 0.06 0.05 0.06 0.08 0.08 0.08 0.06 0.05 0.05 0.05 0.05
0.00 0.01 0.02 0.03 0.03 0.02 0.01 0.01 0.02 0.02 0.02 0.03 0.03 0.03 0.04 0.05 0.04 0.05 0.05 0.05 0.04 0.03 0.04 0.07 0.07 0.06 0.05 0.04 0.05 0.05 0.05 0.04 0.03 0.03 0.04 0.06 0.06 0.06 0.06 0.05 0.04 0.05 0.04
0.01 0.02 0.03 0.03 0.03 0.02 0.02 0.01 0.01 0.02 0.03 0.02 0.03 0.04 0.03 0.04 0.04 0.05 0.05 0.04 0.04 0.03 0.03 0.05 0.06 0.05 0.04 0.04 0.04 0.04 0.04 0.04 0.02 0.01 0.02 0.03 0.03 0.07 0.07 0.05 0.05 0.05 0.03
0.02 0.01 0.02 0.02 0.02 0.02 0.02 0.02 0.02 0.02 0.03 0.02 0.03 0.04 0.03 0.04 0.04 0.05 0.04 0.05 0.04 0.03 0.04 0.05 0.06 0.05 0.05 0.05 0.05 0.04 0.03 0.03 0.02 0.02 0.03 0.03 0.04 0.07 0.07 0.06 0.06 0.06 0.05
0.03 0.02 0.01 0.01 0.02 0.03 0.02 0.02 0.02 0.03 0.03 0.03 0.03 0.03 0.03 0.03 0.03 0.04 0.04 0.06 0.05 0.06 0.07 0.05 0.06 0.07 0.06 0.05 0.05 0.04 0.03 0.04 0.03 0.04 0.05 0.04 0.05 0.06 0.05 0.05 0.05 0.05 0.06
0.01 0.02 0.01 0.01 0.01 0.02 0.02 0.02 0.03 0.03 0.03 0.03 0.04 0.03 0.04 0.06 0.05 0.04 0.03 0.04 0.05 0.06 0.05 0.05 0.05 0.06 0.05 0.05 0.05 0.04 0.03 0.03 0.03 0.03 0.06 0.04 0.04 0.05 0.04 0.03 0.04 0.05 0.05
0.01 0.01 0.01 0.01 0.01 0.01 0.02 0.03 0.05 0.05 0.05 0.05 0.05 0.03 0.05 0.05 0.05 0.04 0.03 0.04 0.04 0.05 0.05 0.04 0.03 0.02 0.03 0.03 0.05 0.05 0.02 0.02 0.01 0.01 0.02 0.02 0.04 0.05 0.05 0.03 0.04 0.05 0.04
0.01 0.01 0.01 0.02 0.02 0.02 0.03 0.04 0.05 0.05 0.04 0.04 0.04 0.03 0.04 0.03 0.04 0.04 0.06 0.06 0.05 0.04 0.03 0.03 0.02 0.02 0.02 0.04 0.06 0.06 0.03 0.01 0.01 0.01 0.01 0.02 0.03 0.04 0.04 0.04 0.04 0.05 0.04
0.02 0.02 0.02 0.03 0.03 0.03 0.04 0.05 0.05 0.04 0.03 0.03 0.03 0.02 0.03 0.04 0.04 0.03 0.04 0.04 0.04 0.04 0.03 0.03 0.03 0.03 0.02 0.03 0.04 0.06 0.04 0.02 0.03 0.03 0.03 0.02 0.02 0.03 0.03 0.03 0.04 0.04 0.04
0.03 0.02 0.03 0.03 0.03 0.04 0.05 0.05 0.05 0.04 0.04 0.03 0.04 0.03 0.02 0.03 0.04 0.05 0.04 0.03 0.03 0.02 0.02 0.03 0.03 0.04 0.03 0.03 0.03 0.03 0.03 0.03 0.03 0.03 0.03 0.02 0.02 0.03 0.04 0.04 0.04 0.04 0.04
0.04 0.03 0.03 0.03 0.03 0.04 0.06 0.05 0.05 0.05 0.06 0.06 0.05 0.04 0.03 0.03 0.04 0.06 0.05 0.05 0.03 0.02 0.03 0.05 0.04 0.04 0.04 0.04 0.03 0.03 0.03 0.02 0.02 0.02 0.03 0.04 0.02 0.03 0.03 0.04 0.04 0.04 0.03
0.05 0.04 0.06 0.05 0.04 0.07 0.09 0.08 0.05 0.04 0.04 0.06 0.06 0.05 0.04 0.04 0.05 0.06 0.06 0.06 0.05 0.04 0.05 0.05 0.06 0.06 0.05 0.04 0.04 0.04 0.04 0.03 0.01 0.01 0.02 0.03 0.02 0.02 0.02 0.03 0.04 0.05 0.04
0.08 0.06 0.06 0.05 0.04 0.08 0.14 0.16 0.10 0.07 0.07 0.07 0.07 0.06 0.05 0.05 0.05 0.05 0.06 0.07 0.07 0.06 0.07 0.07 0.08 0.08 0.08 0.07 0.06 0.06 0.05 0.04 0.02 0.02 0.02 0.02 0.03 0.03 0.03 0.03 0.03 0.04 0.04
0.09 0.09 0.09 0.08 0.07 0.08 0.12 0.20 0.19 0.11 0.08 0.08 0.07 0.07 0.06 0.07 0.05 0.06 0.08 0.08 0.06 0.07 0.07 0.05 0.06 0.08 0.09 0.08 0.05 0.06 0.05 0.03 0.03 0.02 0.01 0.01 0.02 0.03 0.03 0.03 0.02 0.02 0.05
0.09 0.08 0.07 0.08 0.07 0.06 0.08 0.17 0.25 0.14 0.09 0.07 0.07 0.08 0.08 0.07 0.06 0.08 0.07 0.06 0.05 0.07 0.07 0.07 0.09 0.09 0.09 0.07 0.03 0.03 0.04 0.03 0.02 0.02 0.02 0.02 0.03 0.02 0.01 0.02 0.05 0.03 0.03
0.05 0.05 0.05 0.09 0.12 0.12 0.11 0.11 0.13 0.11 0.08 0.07 0.06 0.07 0.07 0.07 0.07 0.10 0.06 0.07 0.06 0.06 0.07 0.06 0.08 0.08 0.07 0.06 0.06 0.04 0.03 0.02 0.02 0.02 0.03 0.03 0.04 0.03 0.02 0.03 0.06 0.07 0.04
0.02 0.02 0.05 0.08 0.09 0.09 0.10 0.10 0.09 0.09 0.08 0.08 0.09 0.09 0.08 0.07 0.06 0.06 0.08 0.07 0.06 0.06 0.07 0.08 0.10 0.11 0.08 0.06 0.07 0.07 0.06 0.05 0.04 0.02 0.03 0.04 0.05 0.05 0.03 0.03 0.05 0.08 0.06
0.02 0.02 0.05 0.05 0.05 0.05 0.06 0.08 0.07 0.08 0.10 0.12 0.13 0.11 0.07 0.05 0.06 0.05 0.05 0.06 0.07 0.05 0.07 0.10 0.10 0.13 0.12 0.07 0.04 0.08 0.08 0.07 0.06 0.03 0.03 0.03 0.03 0.05 0.04 0.05 0.05 0.07 0.07
0.03 0.03 0.04 0.04 0.04 0.06 0.06 0.06 0.06 0.06 0.08 0.11 0.13 0.11 0.08 0.06 0.06 0.06 0.05 0.07 0.08 0.06 0.08 0.07 0.06 0.09 0.10 0.09 0.07 0.06 0.07 0.08 0.08 0.07 0.04 0.02 0.02 0.03 0.04 0.04 0.03 0.04 0.04
0.03 0.03 0.04 0.04 0.04 0.06 0.06 0.05 0.06 0.06 0.07 0.09 0.09 0.12 0.11 0.08 0.08 0.06 0.07 0.09 0.09 0.07 0.08 0.09 0.09 0.08 0.08 0.10 0.10 0.08 0.08 0.09 0.07 0.07 0.07 0.06 0.04 0.02 0.03 0.04 0.03 0.03 0.04
0.02 0.03 0.03 0.04 0.03 0.03 0.04 0.04 0.06 0.07 0.07 0.08 0.09 0.08 0.07 0.07 0.08 0.06 0.06 0.08 0.09 0.10 0.08 0.08 0.07 0.07 0.08 0.09 0.11 0.09 0.09 0.09 0.09 0.09 0.07 0.07 0.07 0.04 0.03 0.03 0.04 0.05 0.05
MSLP
1013.01 1013.16 1013.47 1013.91 1014.39 1014.85 1015.21 1015.44 1015.53 1015.50 1015.41 1015.33 1015.29 1015.32 1015.43 1015.58 1015.73 1015.86 1015.92 1015.93 1015.90 1015.87 1015.87 1015.93 1016.04 1016.21 1016.39 1016.56 1016.69 1016.77 1016.80 1016.82 1016.84 1016.90 1017.00 1017.16 1017.34 1017.55 1017.76 1017.94 1018.11 1018.27 1018.42
1012.98 1013.26 1013.70 1014.24 1014.82 1015.33 1015.71 1015.93 1015.96 1015.87 1015.70 1015.54 1015.43 1015.43 1015.51 1015.66 1015.83 1015.97 1016.05 1016.06 1016.04 1016.01 1016.01 1016.08 1016.23 1016.44 1016.67 1016.90 1017.08 1017.20 1017.27 1017.29 1017.30 1017.33 1017.41 1017.54 1017.71 1017.92 1018.12 1018.32 1018.49 1018.64 1018.77
1013.08 1013.45 1013.96 1014.57 1015.18 1015.72 1016.10 1016.30 1016.31 1016.17 1015.95 1015.75 1015.61 1015.57 1015.64 1015.78 1015.93 1016.06 1016.12 1016.12 1016.08 1016.05 1016.06 1016.16 1016.35 1016.61 1016.91 1017.20 1017.43 1017.59 1017.67 1017.69 1017.69 1017.70 1017.75 1017.86 1018.02 1018.23 1018.44 1018.65 1018.83 1018.98 1019.10
1013.25 1013.65 1014.18 1014.80 1015.42 1015.95 1016.33 1016.52 1016.52 1016.38 1016.17 1015.96 1015.82 1015.78 1015.84 1015.95 1016.08 1016.17 1016.20 1016.16 1016.11 1016.07 1016.09 1016.22 1016.45 1016.77 1017.12 1017.46 1017.73 1017.91 1017.99 1018.00 1017.98 1017.97 1018.01 1018.11 1018.28 1018.50 1018.73 1018.95 1019.15 1019.31 1019.44
1013.42 1013.80 1014.31 1014.90 1015.49 1016.01 1016.39 1016.59 1016.62 1016.51 1016.34 1016.18 1016.07 1016.05 1016.11 1016.20 1016.30 1016.34 1016.33 1016.26 1016.18 1016.13 1016.17 1016.33 1016.60 1016.96 1017.35 1017.71 1017.99 1018.17 1018.24 1018.23 1018.19 1018.17 1018.20 1018.31 1018.50 1018.74 1019.00 1019.26 1019.48 1019.66 1019.79
1013.56 1013.90 1014.36 1014.89 1015.44 1015.93 1016.30 1016.53 1016.60 1016.57 1016.48 1016.39 1016.34 1016.36 1016.43 1016.52 1016.58 1016.59 1016.53 1016.44 1016.34 1016.30 1016.36 1016.54 1016.84 1017.22 1017.62 1017.97 1018.23 1018.37 1018.41 1018.37 1018.31 1018.29 1018.34 1018.48 1018.70 1018.98 1019.29 1019.57 1019.81 1020.00 1020.15
1013.70 1013.97 1014.36 1014.82 1015.32 1015.78 1016.15 1016.40 1016.54 1016.58 1016.57 1016.56 1016.59 1016.66 1016.76 1016.85 1016.90 1016.89 1016.82 1016.71 1016.62 1016.60 1016.68 1016.88 1017.19 1017.56 1017.93 1018.24 1018.45 1018.54 1018.52 1018.45 1018.37 1018.36 1018.44 1018.63 1018.91 1019.24 1019.58 1019.89 1020.15 1020.34 1020.48
1013.85 1014.06 1014.38 1014.79 1015.23 1015.66 1016.02 1016.29 1016.47 1016.57 1016.63 1016.70 1016.79 1016.91 1017.04 1017.15 1017.20 1017.20 1017.14 1017.05 1016.99 1016.99 1017.10 1017.31 1017.62 1017.96 1018.28 1018.52 1018.64 1018.65 1018.58 1018.48 1018.40 1018.41 1018.54 1018.79 1019.13 1019.51 1019.89 1020.22 1020.47 1020.65 1020.77
1014.05 1014.23 1014.50 1014.86 1015.26 1015.65 1015.99 1016.25 1016.44 1016.57 1016.68 1016.79 1016.92 1017.08 1017.23 1017.36 1017.45 1017.47 1017.44 1017.39 1017.37 1017.42 1017.55 1017.78 1018.06 1018.35 1018.60 1018.75 1018.79 1018.73 1018.60 1018.48 1018.41 1018.47 1018.66 1018.97 1019.37 1019.80 1020.20 1020.53 1020.77 1020.91 1021.00
1014.33 1014.50 1014.76 1015.09 1015.46 1015.81 1016.11 1016.34 1016.50 1016.61 1016.71 1016.83 1016.97 1017.14 1017.32 1017.47 1017.59 1017.65 1017.67 1017.68 1017.72 1017.81 1017.97 1018.19 1018.45 1018.69 1018.86 1018.92 1018.88 1018.76 1018.59 1018.46 1018.43 1018.53 1018.79 1019.17 1019.63 1020.09 1020.51 1020.82 1021.02 1021.12 1021.15
1014.67 1014.87 1015.15 1015.48 1015.82 1016.13 1016.37 1016.54 1016.64 1016.70 1016.76 1016.84 1016.97 1017.13 1017.31 1017.49 1017.64 1017.74 1017.82 1017.89 1017.97 1018.10 1018.28 1018.50 1018.72 1018.90 1019.00 1019.00 1018.90 1018.74 1018.56 1018.45 1018.45 1018.61 1018.93 1019.37 1019.87 1020.36 1020.77 1021.06 1021.22 1021.27 1021.25
1015.02 1015.29 1015.61 1015.96 1016.29 1016.56 1016.74 1016.83 1016.85 1016.83 1016.82 1016.85 1016.93 1017.07 1017.25 1017.44 1017.62 1017.77 1017.89 1018.00 1018.13 1018.28 1018.46 1018.66 1018.85 1018.99 1019.04 1018.99 1018.86 1018.68 1018.51 1018.43 1018.48 1018.69 1019.06 1019.54 1020.07 1020.57 1020.97 1021.24 1021.36 1021.37 1021.31
1015.35 1015.69 1016.08 1016.46 1016.79 1017.02 1017.15 1017.16 1017.09 1016.99 1016.91 1016.87 1016.92 1017.03 1017.20 1017.40 1017.60 1017.77 1017.92 1018.06 1018.20 1018.36 1018.53 1018.71 1018.86 1018.96 1018.98 1018.91 1018.77 1018.61 1018.47 1018.42 1018.51 1018.76 1019.15 1019.65 1020.18 1020.67 1021.06 1021.31 1021.42 1021.41 1021.33
1015.59 1016.02 1016.47 1016.89 1017.22 1017.44 1017.52 1017.47 1017.34 1017.17 1017.02 1016.94 1016.95 1017.05 1017.21 1017.41 1017.62 1017.81 1017.97 1018.11 1018.25 1018.39 1018.53 1018.68 1018.80 1018.87 1018.88 1018.81 1018.69 1018.55 1018.44 1018.42 1018.53 1018.79 1019.18 1019.66 1020.17 1020.64 1021.02 1021.26 1021.37 1021.37 1021.31
1015.72 1016.23 1016.73 1017.18 1017.53 1017.73 1017.78 1017.70 1017.53 1017.33 1017.16 1017.06 1017.05 1017.14 1017.31 1017.51 1017.72 1017.91 1018.07 1018.20 1018.31 1018.42 1018.53 1018.64 1018.73 1018.79 1018.79 1018.74 1018.64 1018.53 1018.44 1018.43 1018.53 1018.76 1019.11 1019.54 1020.00 1020.44 1020.80 1021.05 1021.19 1021.24 1021.23
1015.75 1016.30 1016.84 1017.31 1017.66 1017.87 1017.92 1017.83 1017.66 1017.46 1017.29 1017.20 1017.21 1017.31 1017.49 1017.70 1017.91 1018.09 1018.23 1018.34 1018.42 1018.49 1018.57 1018.65 1018.72 1018.77 1018.78 1018.74 1018.66 1018.56 1018.48 1018.45 1018.51 1018.68 1018.94 1019.29 1019.68 1020.06 1020.40 1020.67 1020.86 1020.97 1021.04
1015.71 1016.27 1016.81 1017.28 1017.64 1017.85 1017.91 1017.85 1017.71 1017.55 1017.42 1017.36 1017.39 1017.52 1017.70 1017.92 1018.13 1018.30 1018.43 1018.52 1018.57 1018.62 1018.67 1018.72 1018.78 1018.83 1018.85 1018.82 1018.75 1018.66 1018.56 1018.49 1018.47 1018.54 1018.69 1018.93 1019.21 1019.53 1019.84 1020.12 1020.35 1020.54 1020.70
1015.63 1016.17 1016.70 1017.15 1017.50 1017.72 1017.81 1017.79 1017.70 1017.59 1017.51 1017.49 1017.56 1017.70 1017.90 1018.11 1018.32 1018.49 1018.61 1018.68 1018.73 1018.77 1018.81 1018.86 1018.91 1018.96 1018.99 1018.97 1018.90 1018.79 1018.66 1018.53 1018.42 1018.37 1018.40 1018.50 1018.67 1018.90 1019.16 1019.43 1019.70 1019.96 1020.19
1015.56 1016.07 1016.55 1016.97 1017.31 1017.53 1017.65 1017.67 1017.64 1017.59 1017.56 1017.59 1017.67 1017.82 1018.01 1018.22 1018.41 1018.58 1018.70 1018.78 1018.84 1018.89 1018.94 1019.00 1019.07 1019.12 1019.15 1019.13 1019.06 1018.93 1018.76 1018.56 1018.37 1018.21 1018.10 1018.07 1018.12 1018.24 1018.44 1018.68 1018.96 1019.25 1019.53
1015.53 1015.98 1016.41 1016.79 1017.11 1017.34 1017.49 1017.56 1017.58 1017.58 1017.59 1017.63 1017.72 1017.86 1018.02 1018.20 1018.37 1018.53 1018.66 1018.76 1018.85 1018.92 1019.01 1019.09 1019.17 1019.24 1019.28 1019.26 1019.18 1019.04 1018.83 1018.59 1018.32 1018.07 1017.85 1017.70 1017.63 1017.65 1017.75 1017.93 1018.17 1018.45 1018.75
1015.52 1015.93 1016.31 1016.66 1016.96 1017.20 1017.37 1017.48 1017.55 1017.59 1017.61 1017.65 1017.72 1017.80 1017.92 1018.05 1018.19 1018.33 1018.47 1018.60 1018.72 1018.84 1018.96 1019.08 1019.18 1019.26 1019.30 1019.29 1019.21 1019.06 1018.85 1018.58 1018.28 1017.97 1017.69 1017.44 1017.26 1017.17 1017.16 1017.25 1017.42 1017.64 1017.91
1015.55 1015.91 1016.26 1016.58 1016.86 1017.11 1017.31 1017.46 1017.56 1017.62 1017.65 1017.67 1017.68 1017.71 1017.75 1017.82 1017.91 1018.03 1018.17 1018.32 1018.48 1018.64 1018.80 1018.94 1019.06 1019.14 1019.19 1019.17 1019.10 1018.97 1018.77 1018.52 1018.24 1017.92 1017.61 1017.31 1017.05 1016.85 1016.73 1016.70 1016.75 1016.88 1017.07
1015.58 1015.92 1016.24 1016.54 1016.83 1017.09 1017.32 1017.50 1017.64 1017.71 1017.73 1017.71 1017.66 1017.61 1017.56 1017.56 1017.59 1017.67 1017.80 1017.96 1018.15 1018.34 1018.52 1018.68 1018.80 1018.88 1018.91 1018.90 1018.84 1018.74 1018.59 1018.40 1018.16 1017.89 1017.59 1017.28 1016.97 1016.69 1016.46 1016.29 1016.21 1016.21 1016.29
1015.61 1015.94 1016.24 1016.54 1016.82 1017.10 1017.36 1017.58 1017.74 1017.83 1017.84 1017.78 1017.67 1017.54 1017.42 1017.33 1017.30 1017.34 1017.44 1017.60 1017.79 1017.99 1018.17 1018.32 1018.42 1018.48 1018.50 1018.48 1018.44 1018.37 1018.29 1018.18 1018.03 1017.84 1017.59 1017.30 1016.98 1016.63 1016.30 1016.00 1015.78 1015.65 1015.61
1015.65 1015.96 1016.24 1016.52 1016.81 1017.11 1017.39 1017.64 1017.84 1017.95 1017.96 1017.88 1017.72 1017.53 1017.34 1017.18 1017.09 1017.08 1017.15 1017.29 1017.47 1017.65 1017.81 1017.93 1017.99 1018.01 1018.00 1017.96 1017.93 1017.91 1017.89 1017.87 1017.82 1017.72 1017.55 1017.31 1016.98 1016.60 1016.19 1015.79 1015.44 1015.18 1015.03
1015.69 1015.96 1016.22 1016.48 1016.76 1017.06 1017.36 1017.64 1017.87 1018.01 1018.03 1017.95 1017.78 1017.55 1017.31 1017.10 1016.96 1016.91 1016.95 1017.06 1017.21 1017.36 1017.48 1017.55 1017.56 1017.53 1017.47 1017.41 1017.38 1017.38 1017.42 1017.48 1017.52 1017.51 1017.42 1017.23 1016.92 1016.52 1016.06 1015.59 1015.14 1014.79 1014.55
Thickness
5784 5781 5772 5771 5770 5769 5769 5768 5767 5766 5765 5764 5763 5762 5761 5760 5760 5759 5759 5758 5758 5757 5756 5755 5755 5754 5753 5753 5752 5752 5751 5750 5749 5749 5747 5746 5745 5744 5743 5742 5743 5742 5739
5788 5780 5771 5770 5769 5768 5767 5766 5765 5764 5763 5762 5761 5761 5760 5759 5758 5758 5757 5756 5756 5755 5754 5753 5752 5752 5751 5751 5750 5750 5749 5748 5747 5747 5746 5744 5743 5742 5741 5741 5742 5740 5737
5787 5780 5773 5769 5768 5766 5765 5764 5763 5762 5761 5760 5759 5758 5758 5757 5757 5756 5755 5754 5754 5753 5752 5751 5750 5749 5749 5748 5748 5748 5747 5746 5745 5745 5745 5746 5742 5740 5739 5739 5738 5737 5736
5787 5781 5774 5768 5766 5765 5763 5762 5761 5760 5759 5758 5757 5757 5756 5756 5755 5754 5754 5753 5752 5751 5750 5749 5748 5747 5747 5746 5746 5746 5745 5744 5744 5745 5747 5746 5743 5738 5737 5737 5736 5735 5734
5786 5780 5771 5766 5765 5763 5762 5761 5759 5758 5757 5756 5756 5755 5755 5754 5753 5753 5752 5751 5750 5750 5749 5748 5747 5746 5745 5744 5744 5743 5742 5742 5743 5745 5746 5744 5741 5737 5736 5735 5735 5734 5733
5784 5780 5770 5765 5763 5761 5760 5759 5758 5757 5756 5755 5754 5753 5753 5752 5752 5751 5750 5749 5748 5748 5747 5746 5745 5744 5743 5742 5742 5741 5741 5741 5743 5745 5743 5743 5740 5736 5735 5734 5734 5733 5731
5785 5780 5770 5763 5761 5760 5758 5757 5756 5755 5754 5753 5752 5752 5751 5751 5750 5749 5749 5748 5747 5746 5745 5745 5744 5743 5742 5741 5740 5740 5740 5741 5745 5743 5741 5741 5738 5735 5734 5733 5732 5731 5730
5783 5778 5769 5762 5760 5758 5757 5756 5755 5754 5753 5752 5751 5750 5750 5749 5748 5748 5747 5746 5746 5745 5744 5743 5742 5741 5741 5740 5739 5738 5739 5741 5743 5743 5742 5739 5735 5734 5733 5732 5730 5729 5728
5781 5778 5771 5766 5760 5757 5756 5755 5754 5753 5751 5750 5750 5749 5748 5747 5747 5746 5746 5745 5744 5743 5742 5741 5741 5740 5739 5739 5738 5737 5738 5740 5744 5742 5741 5737 5732 5732 5731 5730 5729 5728 5727
5778 5777 5772 5770 5765 5762 5758 5754 5752 5751 5750 5749 5748 5748 5747 5746 5746 5745 5745 5744 5743 5742 5741 5740 5740 5739 5738 5738 5737 5736 5737 5739 5744 5742 5739 5735 5731 5730 5729 5729 5728 5727 5726
5774 5774 5773 5771 5766 5764 5762 5755 5753 5751 5750 5749 5748 5747 5748 5749 5749 5747 5744 5742 5742 5741 5740 5740 5739 5738 5738 5737 5737 5736 5738 5743 5743 5742 5738 5733 5731 5730 5729 5728 5727 5726 5725
5771 5770 5769 5769 5766 5764 5762 5757 5755 5755 5752 5751 5750 5750 5749 5748 5748 5747 5742 5741 5741 5740 5740 5739 5739 5739 5741 5741 5739 5738 5742 5743 5743 5741 5736 5731 5730 5729 5728 5727 5726 5725 5724
5775 5770 5768 5766 5763 5762 5760 5758 5757 5755 5752 5751 5750 5749 5748 5748 5748 5747 5745 5742 5742 5742 5743 5741 5742 5745 5744 5743 5743 5743 5743 5744 5743 5742 5736 5731 5730 5728 5728 5727 5726 5725 5723
5774 5769 5767 5763 5760 5758 5758 5757 5756 5755 5754 5753 5749 5749 5749 5749 5748 5748 5746 5746 5746 5745 5744 5745 5744 5744 5743 5743 5743 5743 5742 5744 5743 5741 5735 5732 5730 5729 5728 5727 5726 5725 5723
5772 5769 5766 5762 5758 5756 5754 5755 5755 5754 5754 5752 5749 5748 5748 5749 5748 5748 5747 5746 5747 5746 5745 5744 5745 5744 5744 5744 5744 5744 5743 5742 5742 5742 5737 5732 5730 5729 5728 5727 5726 5725 5723
5772 5769 5767 5762 5759 5756 5754 5754 5754 5754 5751 5752 5750 5749 5747 5749 5748 5747 5746 5745 5747 5747 5747 5745 5745 5745 5745 5745 5744 5744 5743 5743 5741 5740 5740 5735 5732 5730 5729 5728 5727 5725 5724
5773 5770 5766 5763 5760 5757 5755 5754 5754 5753 5753 5751 5750 5748 5747 5748 5746 5746 5747 5746 5746 5746 5745 5744 5744 5745 5745 5746 5745 5744 5744 5743 5743 5741 5741 5740 5737 5732 5730 5729 5727 5726 5725
5776 5771 5768 5767 5762 5757 5754 5753 5753 5753 5751 5750 5749 5748 5747 5747 5746 5746 5748 5748 5746 5746 5746 5745 5746 5746 5746 5746 5745 5745 5745 5743 5743 5742 5742 5741 5740 5739 5734 5731 5729 5727 5726
5778 5773 5768 5766 5762 5759 5756 5753 5752 5750 5750 5750 5749 5749 5748 5747 5747 5747 5747 5747 5746 5747 5747 5748 5748 5747 5745 5745 5746 5745 5746 5746 5745 5744 5744 5743 5741 5739 5738 5734 5731 5729 5727
5780 5775 5770 5766 5763 5760 5756 5753 5751 5751 5751 5750 5750 5749 5748 5747 5748 5748 5748 5747 5748 5748 5747 5747 5746 5745 5745 5746 5748 5748 5748 5748 5747 5747 5745 5745 5743 5741 5741 5739 5735 5732 5729
5780 5775 5771 5766 5763 5759 5757 5754 5751 5750 5750 5751 5751 5750 5749 5748 5748 5747 5750 5747 5747 5748 5747 5748 5747 5746 5745 5747 5745 5744 5747 5749 5749 5747 5747 5747 5746 5743 5741 5740 5738 5737 5734
5780 5775 5771 5767 5765 5761 5759 5757 5754 5752 5752 5752 5752 5750 5749 5749 5749 5750 5748 5748 5748 5747 5746 5746 5745 5745 5746 5747 5744 5740 5739 5742 5745 5750 5748 5746 5746 5745 5743 5741 5739 5736 5735
5780 5776 5773 5769 5765 5762 5760 5757 5755 5752 5751 5751 5750 5750 5751 5750 5750 5749 5749 5749 5748 5749 5748 5747 5746 5744 5743 5746 5747 5742 5737 5736 5740 5746 5746 5746 5744 5743 5743 5742 5739 5737 5734
5782 5779 5774 5770 5766 5762 5760 5757 5753 5751 5750 5751 5751 5752 5752 5751 5751 5750 5749 5748 5748 5750 5749 5748 5750 5748 5745 5744 5745 5745 5744 5743 5736 5736 5742 5745 5743 5741 5740 5740 5739 5736 5734
5785 5780 5775 5770 5766 5763 5760 5757 5754 5753 5753 5754 5753 5751 5751 5752 5751 5751 5750 5749 5748 5749 5749 5749 5748 5748 5747 5745 5745 5745 5744 5742 5741 5735 5733 5736 5739 5740 5738 5736 5735 5734 5732
5785 5780 5775 5770 5765 5763 5760 5758 5755 5753 5752 5751 5751 5751 5752 5753 5752 5752 5751 5749 5749 5749 5749 5749 5748 5748 5747 5746 5746 5745 5743 5740 5739 5737 5733 5732 5732 5734 5734 5733 5731 5729 5727